Tracking 20369 objects as of 17-Feb-2020
HD Live streaming from Space Station
objects crossing your sky now

TSIKADA

Track TSIKADA now!
10-day predictions
TSIKADA is classified as:


NORAD ID: 23463
Int'l Code: 1995-002A
Perigee: 968.1 km
Apogee: 1,027.4 km
Inclination: 82.9 °
Period: 104.9 minutes
Semi major axis: 7368 km
RCS: 1.4564 m2 (large)
Launch date: January 24, 1995
Source: Commonwealth of Independent States (former USSR) (CIS)
Launch site: PLESETSK MISSILE AND SPACE COMPLEX (PKMTR)
aabbcc
Your satellite tracking list
Your tracking list is empty




NASA's NSSDC Master Catalog

Two Line Element Set (TLE):
1 23463U 95002A   20047.74519946 +.00000007 +00000-0 -95275-5 0  9993
2 23463 082.9260 285.6608 0040230 081.9620 341.5919 13.72505012255232
Source of the keplerian elements: AFSPC